Location: Irma
(52.9170°N, 111.2330°W)
Time: 19:56:17
(UTC-06:00)

Amateur Radio Satellites - All Passes

Search period start: 28 May 2016 19:26
Search period end: 29 May 2016 19:26
Location: Irma, 52.9170°N, 111.2330°W

Satellite Date Start Highest point End Downlink Frequencies (MHz)
Time Altitude Azimuth
PCSat 28 May 19:26:17 19:31:33 51° 240° (WSW) 19:36:47 145.827
AUBIESAT-1 28 May 19:28:31 19:32:15 42° 62° (ENE) 19:35:45 437.475
RS-15 28 May 19:29:06 19:40:42 86° 314° (NW) 19:52:59 29.354- 29.394
HO-68 28 May 19:32:36 19:39:27 51° 60° (ENE) 19:46:19 435.675
Cosmos 2504 28 May 19:35:32 19:42:40 52° 290° (WNW) 19:50:20 435.465 / 435.565
M-CUBED/EXP-1 PRIME 28 May 19:36:02 19:40:01 61° 65° (ENE) 19:43:42 437.505
BEESAT 3 28 May 19:38:35 19:42:34 65° 43° (NE) 19:46:30 437.485
CINEMA 3 28 May 19:40:17 19:44:29 35° 65° (ENE) 19:48:31 145.822/145.860
LilacSat-2 28 May 19:41:19 19:44:25 24° 267° (W) 19:47:32 437.200
NOAA 15 28 May 19:42:08 19:46:24 24° 269° (W) 19:50:41 137.62
CUTE 1.7 + AOD 2 28 May 19:45:32 19:49:20 34° 66° (ENE) 19:53:11 437.475
AIST 2 28 May 19:47:32 19:50:28 18° 14° (NNE) 19:53:23 435.215
Cubesat XI-IV 28 May 19:50:53 19:55:25 28° 267° (W) 20:00:00 437.490
BRITE-PL 28 May 19:54:44 19:59:31 27° 270° (W) 20:04:18 437.365/2234.400
Oscar 11 28 May 19:56:47 19:58:36 12° 52° (NE) 20:00:24 145.826/435.025
NOAA 18 28 May 19:59:46 20:03:50 21° 270° (W) 20:07:55 137.9125
COMPASS 1 28 May 20:02:55 20:06:30 29° 64° (ENE) 20:10:08 437.405
AAUSAT CUBESAT 2 28 May 20:04:27 20:07:51 25° 62° (ENE) 20:11:17 437.432
ZACube-1 28 May 20:12:50 20:15:05 14° 56° (NE) 20:17:21 437.345
GOMX 1 28 May 20:13:00 20:17:51 32° 267° (W) 20:22:35 467.674
O/OREOS (USA 219) 28 May 20:16:57 20:21:00 34° 252° (WSW) 20:25:02 437.305
CUBEBUG 2 28 May 20:21:57 20:25:43 30° 64° (ENE) 20:29:24 437.445
DELFI C3 28 May 20:26:57 20:28:01 11° 53° (NE) 20:29:05 145.870
CUBESAT XI-V 28 May 20:31:52 20:35:35 23° 301° (WNW) 20:39:17 437.345
CUSAT 1 28 May 20:33:34 20:38:18 16° 39° (NE) 20:42:46 437.405
DANDE 28 May 20:38:17 20:42:02 13° 33° (NNE) 20:45:48 436.750
CUTE-I 28 May 20:39:47 20:42:03 13° 277° (W) 20:44:19 437.470
STRAND 1 28 May 20:41:15 20:46:21 58° 101° (ESE) 20:51:27 437.568
BEESAT 2 28 May 20:43:56 20:47:53 59° 232° (SW) 20:51:48 435.950
UWE-3 28 May 20:47:41 20:51:35 37° 66° (ENE) 20:55:27 435.000/436.395/437.385
FUNcube-1 28 May 20:48:43 20:52:12 26° 63° (ENE) 20:55:39 145.935
SEEDS 28 May 20:53:55 20:58:06 75° 258° (WSW) 21:02:20 437.485
CANX-2 28 May 20:53:57 20:58:03 51° 261° (W) 21:02:13 2200.000
DOVE 4 28 May 20:56:27 21:00:36 24° 269° (W) 21:04:39 437.250
AUBIESAT-1 28 May 21:03:42 21:06:54 23° 259° (W) 21:09:57 437.475
M-CUBED/EXP-1 PRIME 28 May 21:12:11 21:14:52 17° 261° (W) 21:17:26 437.505
BEESAT 3 28 May 21:16:54 21:19:55 21° 243° (WSW) 21:22:54 437.485
CINEMA 3 28 May 21:17:21 21:21:38 35° 264° (W) 21:25:46 145.822/145.860
GONETS M04 28 May 21:17:40 21:24:46 29° 78° (ENE) 21:31:51
HO-68 28 May 21:20:32 21:27:19 45° 262° (W) 21:34:09 435.675
CUTE 1.7 + AOD 2 28 May 21:21:25 21:25:12 32° 265° (W) 21:29:03 437.475
AIST 2 28 May 21:25:56 21:29:56 43° 37° (NE) 21:33:54 435.215
Oscar 11 28 May 21:29:42 21:33:59 71° 72° (ENE) 21:38:18 145.826/435.025
Cosmos 2504 28 May 21:34:12 21:38:24 15° 318° (NW) 21:42:47 435.465 / 435.565
PRISM 28 May 21:35:09 21:39:07 39° 98° (E) 21:43:02 437.425
COMPASS 1 28 May 21:38:06 21:41:59 38° 263° (W) 21:45:55 437.405
AAUSAT CUBESAT 2 28 May 21:39:12 21:43:10 44° 262° (W) 21:47:11 437.432
RS-15 28 May 21:43:22 21:54:48 51° 345° (NNW) 22:06:44 29.354- 29.394
HUMSAT D 28 May 21:44:13 21:47:40 27° 63° (ENE) 21:51:07 437.325/437.525
ZACube-1 28 May 21:46:36 21:50:49 90° 32° (NNE) 21:55:01 437.345
AIST 1 28 May 21:48:16 21:52:34 58° 96° (E) 21:56:56
ESTCUBE 1 28 May 21:48:32 21:49:34 11° 49° (NE) 21:50:36 437.505/2401.250
DELFI C3 28 May 21:58:11 22:02:08 68° 73° (ENE) 22:06:08 145.870
CUBEBUG 2 28 May 21:58:16 22:02:18 37° 263° (W) 22:06:15 437.445
VELOX 1 28 May 22:05:02 22:06:02 11° 49° (NE) 22:07:02 145.980
Cosmos 2499 28 May 22:13:46 22:20:12 34° 82° (E) 22:27:04 435.465 / 435.565
CUSAT 1 28 May 22:15:02 22:22:43 47° 64° (ENE) 22:29:22 437.405
50 SAT 28 May 22:20:01 22:20:46 10° 54° (NE) 22:21:31 437.505
DANDE 28 May 22:20:08 22:27:44 36° 58° (ENE) 22:35:00 436.750
STRAND 1 28 May 22:20:56 22:25:15 28° 301° (WNW) 22:29:35 437.568
FUNcube-1 28 May 22:24:19 22:28:19 42° 262° (W) 22:32:17 145.935
UWE-3 28 May 22:24:24 22:28:09 29° 265° (W) 22:31:51 435.000/436.395/437.385
ISS 28 May 22:30:03 22:32:43 23° 149° (SSE) 22:35:22 145.825
SEEDS 28 May 22:34:25 22:34:36 10° 276° (W) 22:34:48 437.485
AISAT 28 May 22:38:38 22:41:52 20° 57° (ENE) 22:45:05 437.250
UKube-1 28 May 22:40:06 22:42:31 15° 53° (NE) 22:44:56 .
UNISAT 6 28 May 22:59:05 23:02:22 21° 91° (E) 23:05:41 437.425
AIST 2 28 May 23:04:33 23:08:24 37° 237° (WSW) 23:12:14 435.215
TIGRISAT 28 May 23:06:03 23:09:30 23° 93° (E) 23:12:57 435.000
Oscar 11 28 May 23:07:52 23:10:37 16° 272° (W) 23:13:23 145.826/435.025
PRISM 28 May 23:10:42 23:14:20 29° 297° (WNW) 23:17:55 437.425
GONETS M04 28 May 23:11:53 23:20:42 82° 282° (WNW) 23:29:31
HUMSAT D 28 May 23:19:20 23:23:11 39° 262° (W) 23:27:03 437.325/437.525
ESTCUBE 1 28 May 23:21:01 23:25:26 53° 69° (ENE) 23:29:52 437.505/2401.250
ZACube-1 28 May 23:26:03 23:27:46 12° 274° (W) 23:29:28 437.345
CUBEBUG 1 28 May 23:26:42 23:30:55 44° 67° (ENE) 23:35:09 437.445
AIST 1 28 May 23:27:13 23:30:34 21° 296° (WNW) 23:33:56
DX 1 28 May 23:27:19 23:31:24 39° 65° (ENE) 23:35:31 434.975-435.025
DELFI C3 28 May 23:35:08 23:37:28 15° 272° (W) 23:39:51 145.870
VELOX 1 28 May 23:37:14 23:41:35 54° 69° (ENE) 23:45:58 145.980
ANTELSAT 28 May 23:39:43 23:43:54 47° 100° (E) 23:48:06 437.575/2403.000
SPROUT 28 May 23:47:44 23:51:31 31° 64° (ENE) 23:55:18 437.525
50 SAT 28 May 23:50:12 23:53:50 76° 74° (ENE) 23:57:32 437.505
CUSAT 1 28 May 23:57:25 00:05:00 51° 269° (W) 00:11:30 437.405
RS-15 28 May 23:58:24 00:10:10 53° 18° (NNE) 00:22:13 29.354- 29.394
POPSAT HIP 1 29 May 00:02:47 00:05:46 19° 90° (E) 00:08:44 437.405
DANDE 29 May 00:02:58 00:11:27 78° 260° (W) 00:19:18 436.750
QB50P1 29 May 00:03:00 00:06:02 19° 90° (E) 00:09:03 145.935-145.965
Cosmos 2499 29 May 00:05:26 00:12:47 65° 286° (WNW) 00:20:48 435.465 / 435.565
ISS 29 May 00:05:33 00:08:47 60° 168° (SSE) 00:12:02 145.825
QB50P2 29 May 00:05:41 00:08:55 21° 91° (E) 00:12:08 145.880/145.840
TISAT 1 29 May 00:07:44 00:10:36 18° 57° (ENE) 00:13:29 437.305
POLYITAN 1 29 May 00:08:09 00:11:23 21° 92° (E) 00:14:37 437.675
SO-50 29 May 00:12:51 00:15:57 17° 112° (ESE) 00:19:01 436.795
AISAT 29 May 00:13:27 00:17:55 71° 257° (WSW) 00:22:24 437.250
UKube-1 29 May 00:13:35 00:17:56 84° 70° (ENE) 00:22:19 .
NANOSAT C BR1 29 May 00:20:17 00:23:49 26° 94° (E) 00:27:20 145.865
JAS-2 29 May 00:21:47 00:24:53 13° 74° (ENE) 00:27:51 435.910
UNISAT 6 29 May 00:35:14 00:39:25 54° 290° (WNW) 00:43:39 437.425
TIGRISAT 29 May 00:42:19 00:46:28 49° 291° (WNW) 00:50:38 435.000
DUCHIFAT 1 29 May 00:57:50 01:01:58 54° 101° (E) 01:06:04 145.980
ESTCUBE 1 29 May 00:58:56 01:02:33 23° 268° (W) 01:06:12 437.505/2401.250
CUBEBUG 1 29 May 01:03:36 01:07:23 27° 266° (W) 01:11:11 437.445
DX 1 29 May 01:03:49 01:07:42 30° 265° (W) 01:11:36 434.975-435.025
BUGSAT 1 29 May 01:10:05 01:13:51 36° 97° (E) 01:17:35 437.445
GONETS M04 29 May 01:12:02 01:19:04 26° 307° (NW) 01:26:06
VELOX 1 29 May 01:14:51 01:18:22 22° 268° (W) 01:21:54 145.980
ANTELSAT 29 May 01:16:55 01:20:25 25° 299° (WNW) 01:23:58 437.575/2403.000
Oscar 19 29 May 01:18:52 01:19:41 10° 82° (E) 01:20:29 437.125/150
SPROUT 29 May 01:23:26 01:27:25 37° 263° (W) 01:31:26 437.525
50 SAT 29 May 01:26:40 01:28:05 12° 272° (W) 01:29:31 437.505
YUBILEINY 29 May 01:27:38 01:33:45 20° 46° (NE) 01:39:53 435.215
SWISSCUBE 29 May 01:29:57 01:34:00 29° 60° (ENE) 01:38:05 437.505
ITUPSAT 1 29 May 01:36:52 01:40:58 29° 61° (ENE) 01:45:06 437.325
POPSAT HIP 1 29 May 01:37:48 01:41:57 59° 290° (WNW) 01:46:05 437.405
QB50P1 29 May 01:38:03 01:42:11 58° 290° (WNW) 01:46:19 145.935-145.965
QB50P2 29 May 01:40:55 01:45:02 52° 291° (WNW) 01:49:08 145.880/145.840
TISAT 1 29 May 01:41:36 01:45:49 71° 256° (WSW) 01:50:03 437.305
ISS 29 May 01:41:52 01:45:07 66° 189° (S) 01:48:22 145.825
CUSAT 1 29 May 01:42:09 01:45:09 13° 291° (WNW) 01:48:02 437.405
POLYITAN 1 29 May 01:43:24 01:47:30 51° 291° (WNW) 01:51:35 437.675
DANDE 29 May 01:46:57 01:53:06 23° 283° (WNW) 01:59:00 436.750
SO-50 29 May 01:50:50 01:55:46 80° 131° (SE) 02:00:39 436.795
UKube-1 29 May 01:52:17 01:54:36 14° 272° (W) 01:56:56 .
AISAT 29 May 01:54:24 01:55:14 10° 276° (W) 01:56:03 437.250
NANOSAT C BR1 29 May 01:55:45 01:59:44 42° 293° (WNW) 02:03:40 145.865
BEESAT 29 May 01:58:55 02:03:25 43° 65° (ENE) 02:07:57 436.000
Cosmos 2499 29 May 02:02:42 02:07:53 19° 313° (NW) 02:13:21 435.465 / 435.565
JAS-2 29 May 02:04:22 02:11:51 55° 98° (E) 02:18:32 435.910
RS-15 29 May 02:11:49 02:24:07 89° 234° (SW) 02:36:31 29.354- 29.394
KKS-1 29 May 02:31:50 02:34:37 16° 54° (NE) 02:37:23 437.445
DUCHIFAT 1 29 May 02:34:10 02:37:22 22° 300° (WNW) 02:40:35 145.980
Cosmos 2491 29 May 02:36:24 02:40:33 14° 67° (ENE) 02:44:43 435.465 / 435.565
BUGSAT 1 29 May 02:45:39 02:49:10 28° 297° (WNW) 02:52:38 437.445
Oscar 19 29 May 02:54:58 03:00:07 61° 101° (ESE) 03:05:12 437.125/150
MOZHAYETS 4 29 May 02:57:40 03:01:00 20° 57° (ENE) 03:04:20
STARS 29 May 03:03:11 03:06:03 17° 56° (NE) 03:08:56 437.465
SWISSCUBE 29 May 03:07:00 03:11:37 49° 260° (W) 03:16:17 437.505
ITUPSAT 1 29 May 03:14:02 03:18:38 48° 260° (W) 03:23:18 437.325
POPSAT HIP 1 29 May 03:16:08 03:16:54 10° 309° (NW) 03:17:41 437.405
QB50P1 29 May 03:16:31 03:17:08 10° 310° (NW) 03:17:45 145.935-145.965
ISS 29 May 03:18:25 03:21:16 28° 208° (SSW) 03:24:07 145.825
YUBILEINY 29 May 03:23:59 03:32:42 64° 73° (ENE) 03:41:24 435.215
Cosmos 2504 29 May 03:26:01 03:32:51 27° 56° (NE) 03:39:59 435.465 / 435.565
Gurwin Techsat 1B 29 May 03:30:04 03:35:20 56° 101° (E) 03:40:33 435.225
AO-7 29 May 03:30:06 03:35:02 16° 82° (E) 03:39:56 29.400- 29.500
SO-50 29 May 03:32:19 03:36:44 32° 333° (NNW) 03:41:07 436.795
BEESAT 29 May 03:37:08 03:41:21 31° 265° (W) 03:45:36 436.000
ITAMSAT 1 29 May 03:40:08 03:44:45 30° 94° (E) 03:49:20 435.822/435.867
JAS-2 29 May 03:49:35 03:56:43 44° 301° (WNW) 04:03:14 435.910
KKS-1 29 May 04:06:07 04:10:35 89° 242° (WSW) 04:15:06 437.445
RS-15 29 May 04:24:53 04:35:22 36° 254° (WSW) 04:45:53 29.354- 29.394
Cosmos 2491 29 May 04:26:49 04:35:21 57° 90° (E) 04:43:53 435.465 / 435.565
CUBESAT XI-V 29 May 04:27:10 04:30:38 21° 57° (ENE) 04:34:07 437.345
MOZHAYETS 4 29 May 04:33:10 04:37:43 71° 257° (WSW) 04:42:19
Oscar 19 29 May 04:34:50 04:39:08 27° 302° (WNW) 04:43:23 437.125/150
STARS 29 May 04:37:28 04:41:53 82° 253° (WSW) 04:46:19 437.465
Gurwin Techsat 1B 29 May 05:10:28 05:15:03 30° 301° (WNW) 05:19:37 435.225
SO-50 29 May 05:14:54 05:18:33 21° 357° (N) 05:22:10 436.795
HORYU 2 29 May 05:18:26 05:21:35 19° 90° (E) 05:24:44 437.375
Cosmos 2504 29 May 05:19:05 05:27:28 87° 81° (E) 05:36:18 435.465 / 435.565
ITAMSAT 1 29 May 05:19:24 05:24:27 50° 294° (WNW) 05:29:30 435.822/435.867
AO-7 29 May 05:21:13 05:29:35 64° 105° (ESE) 05:37:52 29.400- 29.500
YUBILEINY 29 May 05:21:18 05:29:07 39° 276° (W) 05:36:58 435.215
JAS-2 29 May 05:35:49 05:39:51 15° 324° (NW) 05:43:46 435.910
AO-85 29 May 05:38:56 05:42:21 17° 111° (ESE) 05:45:44 145.980
KKS-1 29 May 05:45:38 05:47:51 13° 273° (W) 05:50:03 437.445
CUBESAT XI-V 29 May 06:02:53 06:07:33 72° 257° (WSW) 06:12:18 437.345
NOAA 15 29 May 06:11:06 06:14:10 15° 86° (E) 06:17:13 137.62
MOZHAYETS 4 29 May 06:14:48 06:15:47 11° 277° (W) 06:16:47
BRITE-PL 29 May 06:15:49 06:18:27 14° 82° (E) 06:20:59 437.365/2234.400
STARS 29 May 06:17:18 06:19:00 12° 274° (W) 06:20:41 437.465
Cubesat XI-IV 29 May 06:22:15 06:24:56 14° 84° (E) 06:27:37 437.490
Cosmos 2491 29 May 06:24:08 06:32:31 45° 294° (WNW) 06:40:55 435.465 / 435.565
STRAND 1 29 May 06:25:13 06:29:32 28° 59° (ENE) 06:33:52 437.568
NOAA 18 29 May 06:33:39 06:37:35 20° 89° (E) 06:41:30 137.9125
HORYU 2 29 May 06:54:11 06:58:35 65° 290° (WNW) 07:02:59 437.375
SO-50 29 May 06:56:18 07:00:28 28° 22° (NNE) 07:04:32 436.795
PRISM 29 May 06:58:18 06:59:38 11° 51° (NE) 07:00:57 437.425
ITAMSAT 1 29 May 07:00:51 07:02:50 12° 315° (NW) 07:04:48 435.822/435.867
CUTE-I 29 May 07:06:39 07:11:21 30° 94° (E) 07:16:03 437.470
LilacSat-2 29 May 07:08:05 07:11:15 25° 94° (E) 07:14:25 437.200
Cosmos 2504 29 May 07:13:21 07:19:59 27° 281° (W) 07:26:52 435.465 / 435.565
AO-7 29 May 07:14:23 07:22:06 43° 308° (NW) 07:29:49 29.400- 29.500
AO-85 29 May 07:16:44 07:22:10 75° 130° (SE) 07:27:25 145.980
GONETS M04 29 May 07:18:11 07:24:42 22° 49° (NE) 07:31:11
CUBESAT XI-V 29 May 07:44:23 07:45:51 11° 277° (W) 07:47:18 437.345
AIST 1 29 May 07:49:08 07:52:59 29° 68° (ENE) 07:56:45
NOAA 15 29 May 07:49:26 07:54:49 83° 108° (ESE) 08:00:06 137.62
BRITE-PL 29 May 07:52:39 07:57:56 81° 104° (ESE) 08:02:44 437.365/2234.400
Cosmos 2499 29 May 07:55:20 08:01:47 23° 51° (NE) 08:08:26 435.465 / 435.565
Cubesat XI-IV 29 May 08:00:35 08:05:58 75° 105° (ESE) 08:11:20 437.490
STRAND 1 29 May 08:03:26 08:08:27 56° 259° (W) 08:13:31 437.568
GOMX 1 29 May 08:08:22 08:13:07 57° 100° (E) 08:17:30 467.674
NOAA 18 29 May 08:13:24 08:18:55 82° 289° (WNW) 08:24:25 137.9125
Cosmos 2491 29 May 08:27:42 08:32:19 15° 323° (NW) 08:36:58 435.465 / 435.565
PRISM 29 May 08:30:02 08:34:09 64° 71° (ENE) 08:38:20 437.425
HORYU 2 29 May 08:32:35 08:34:21 12° 310° (NW) 08:36:07 437.375
SEEDS 29 May 08:33:11 08:35:13 13° 86° (E) 08:37:15 437.485
CANX-2 29 May 08:33:21 08:36:28 19° 90° (E) 08:39:35 2200.000
SO-50 29 May 08:36:49 08:41:38 81° 43° (NE) 08:46:17 436.795
HO-68 29 May 08:41:07 08:47:15 29° 92° (E) 08:53:20 435.675
LilacSat-2 29 May 08:42:11 08:45:40 36° 293° (WNW) 08:49:09 437.200
M-CUBED/EXP-1 PRIME 29 May 08:45:23 08:46:50 12° 96° (E) 08:48:18 437.505
CUTE-I 29 May 08:46:29 08:51:41 53° 294° (WNW) 08:56:53 437.470
DOVE 4 29 May 08:48:13 08:52:41 67° 102° (ESE) 08:56:54 437.250
AO-85 29 May 08:58:09 09:03:07 36° 331° (NNW) 09:07:51 145.980
O/OREOS (USA 219) 29 May 08:58:17 09:00:20 13° 98° (E) 09:02:24 437.305
CUTE 1.7 + AOD 2 29 May 08:59:49 09:03:36 29° 94° (E) 09:07:21 437.475
CINEMA 3 29 May 09:05:36 09:09:24 33° 95° (E) 09:13:10 145.822/145.860
AO-7 29 May 09:07:51 09:12:52 18° 333° (NNW) 09:17:53 29.400- 29.500
ANTELSAT 29 May 09:10:07 09:12:29 15° 55° (NE) 09:14:51 437.575/2403.000
GONETS M04 29 May 09:14:39 09:23:24 72° 75° (ENE) 09:32:03
COMPASS 1 29 May 09:14:52 09:18:18 23° 92° (E) 09:21:42 437.405
AAUSAT CUBESAT 2 29 May 09:15:46 09:18:53 20° 90° (E) 09:22:00 437.432
AIST 1 29 May 09:26:38 09:30:41 38° 268° (W) 09:34:41
NOAA 15 29 May 09:30:03 09:34:02 22° 306° (NW) 09:37:59 137.62
ZACube-1 29 May 09:30:40 09:32:02 11° 85° (E) 09:33:23 437.345
BRITE-PL 29 May 09:31:57 09:35:45 21° 306° (NW) 09:39:23 437.365/2234.400
Cubesat XI-IV 29 May 09:41:23 09:45:35 24° 305° (NW) 09:49:47 437.490
CUBEBUG 2 29 May 09:42:39 09:46:15 27° 94° (E) 09:49:52 437.445
GOMX 1 29 May 09:47:02 09:50:51 24° 302° (WNW) 09:54:28 467.674
Cosmos 2499 29 May 09:48:01 09:56:33 72° 76° (ENE) 10:05:25 435.465 / 435.565
NOAA 18 29 May 09:55:06 09:58:51 19° 310° (NW) 10:02:37 137.9125
UNISAT 6 29 May 10:03:30 10:07:30 38° 66° (ENE) 10:11:29 437.425
FUNcube-1 29 May 10:06:10 10:09:32 23° 92° (E) 10:12:54 145.935
UWE-3 29 May 10:07:07 10:10:56 34° 96° (E) 10:14:47 435.000/436.395/437.385
PRISM 29 May 10:07:07 10:09:54 17° 270° (W) 10:12:43 437.425
SEEDS 29 May 10:07:16 10:11:33 87° 288° (WNW) 10:15:50 437.485
CANX-2 29 May 10:08:29 10:12:42 59° 289° (WNW) 10:16:56 2200.000
AUBIESAT-1 29 May 10:10:06 10:13:27 90° 203° (SSW) 10:16:46 437.475
TIGRISAT 29 May 10:10:19 10:14:23 41° 67° (ENE) 10:18:24 435.000
PCSat 29 May 10:13:35 10:18:39 42° 118° (ESE) 10:23:46 145.827
SO-50 29 May 10:18:06 10:21:36 21° 246° (WSW) 10:25:00 436.795
M-CUBED/EXP-1 PRIME 29 May 10:18:35 10:21:52 59° 294° (WNW) 10:25:04 437.505
DUCHIFAT 1 29 May 10:22:05 10:24:22 14° 55° (NE) 10:26:40 145.980
DOVE 4 29 May 10:26:45 10:29:56 19° 303° (WNW) 10:33:00 437.250
CUTE-I 29 May 10:28:21 10:30:39 13° 315° (NW) 10:32:57 437.470
HO-68 29 May 10:28:28 10:35:38 74° 293° (WNW) 10:42:48 435.675
BUGSAT 1 29 May 10:34:14 10:34:43 10° 51° (NE) 10:35:11 437.445
O/OREOS (USA 219) 29 May 10:34:26 10:39:00 82° 119° (ESE) 10:43:34 437.305
CUTE 1.7 + AOD 2 29 May 10:35:34 10:39:32 38° 294° (WNW) 10:43:31 437.475
JAS-2 29 May 10:40:20 10:45:09 18° 40° (NE) 10:49:59 435.910
AO-85 29 May 10:40:55 10:44:56 22° 354° (N) 10:48:46 145.980
CINEMA 3 29 May 10:42:50 10:46:34 32° 295° (WNW) 10:50:15 145.822/145.860
ANTELSAT 29 May 10:44:17 10:48:36 87° 80° (E) 10:52:55 437.575/2403.000
Oscar 11 29 May 10:46:46 10:51:06 63° 102° (ESE) 10:55:25 145.826/435.025
COMPASS 1 29 May 10:50:02 10:54:06 47° 291° (WNW) 10:58:09 437.405
AAUSAT CUBESAT 2 29 May 10:50:36 10:54:43 55° 289° (WNW) 10:58:50 437.432
HUMSAT D 29 May 10:56:42 10:59:57 22° 92° (E) 11:03:12 437.325/437.525
AO-7 29 May 10:59:56 11:02:24 12° 0° (N) 11:04:53 29.400- 29.500
POPSAT HIP 1 29 May 11:00:43 11:04:27 31° 64° (ENE) 11:08:10 437.405
QB50P1 29 May 11:00:53 11:04:38 31° 64° (ENE) 11:08:23 145.935-145.965
QB50P2 29 May 11:03:47 11:07:37 34° 65° (ENE) 11:11:28 145.880/145.840
DELFI C3 29 May 11:04:36 11:08:33 48° 99° (E) 11:12:28 145.870
ZACube-1 29 May 11:04:48 11:09:01 84° 102° (ESE) 11:13:16 437.345
POLYITAN 1 29 May 11:06:14 11:10:05 35° 65° (ENE) 11:13:57 437.675
GONETS M04 29 May 11:12:07 11:19:35 34° 279° (W) 11:27:03
BEESAT 3 29 May 11:13:52 11:15:57 14° 113° (ESE) 11:18:04 437.485
NANOSAT C BR1 29 May 11:17:53 11:21:52 42° 67° (ENE) 11:25:52 145.865
CUBEBUG 2 29 May 11:19:08 11:23:01 38° 293° (WNW) 11:26:54 437.445
CUSAT 1 29 May 11:23:32 11:29:37 33° 84° (E) 11:36:27 437.405
DANDE 29 May 11:36:56 11:41:33 21° 76° (ENE) 11:46:53 436.750
UNISAT 6 29 May 11:40:32 11:44:20 29° 265° (W) 11:48:06 437.425
Cosmos 2499 29 May 11:41:44 11:49:08 35° 278° (W) 11:56:46 435.465 / 435.565
FUNcube-1 29 May 11:42:00 11:46:00 47° 291° (WNW) 11:50:04 145.935
UWE-3 29 May 11:43:42 11:47:24 32° 295° (WNW) 11:51:09 435.000/436.395/437.385
SEEDS 29 May 11:44:19 11:46:39 15° 305° (NW) 11:49:00 437.485
AUBIESAT-1 29 May 11:46:19 11:47:27 11° 311° (NW) 11:48:36 437.475
CANX-2 29 May 11:46:46 11:47:43 11° 309° (NW) 11:48:41 2200.000
TIGRISAT 29 May 11:47:34 11:51:14 27° 266° (W) 11:54:54 435.000
DUCHIFAT 1 29 May 11:55:15 11:59:28 88° 74° (ENE) 12:03:43 145.980
PCSat 29 May 11:56:47 12:02:03 49° 319° (NW) 12:07:21 145.827
AISAT 29 May 11:58:45 12:01:18 15° 87° (E) 12:03:50 437.250
BUGSAT 1 29 May 12:05:10 12:09:17 58° 70° (ENE) 12:13:22 437.445
O/OREOS (USA 219) 29 May 12:15:30 12:19:00 21° 319° (NW) 12:22:29 437.305
HO-68 29 May 12:17:01 12:22:21 23° 315° (NW) 12:27:41 435.675
BEESAT 2 29 May 12:18:49 12:22:22 32° 122° (ESE) 12:25:56 435.950
JAS-2 29 May 12:21:12 12:28:30 51° 62° (ENE) 12:36:02 435.910
AO-85 29 May 12:22:40 12:26:57 26° 19° (NNE) 12:30:57 145.980
Oscar 11 29 May 12:23:38 12:26:51 21° 301° (WNW) 12:30:05 145.826/435.025
ANTELSAT 29 May 12:23:56 12:25:59 13° 273° (W) 12:28:00 437.575/2403.000
HUMSAT D 29 May 12:31:49 12:35:51 50° 290° (WNW) 12:39:54 437.325/437.525
Cosmos 2491 29 May 12:33:27 12:37:24 13° 34° (NE) 12:41:20 435.465 / 435.565
POPSAT HIP 1 29 May 12:36:15 12:40:11 36° 263° (W) 12:44:07 437.405
QB50P1 29 May 12:36:28 12:40:23 35° 263° (W) 12:44:18 145.935-145.965
Oscar 19 29 May 12:39:35 12:44:05 30° 59° (ENE) 12:48:34 437.125/150
QB50P2 29 May 12:39:39 12:43:28 32° 264° (W) 12:47:18 145.880/145.840
DELFI C3 29 May 12:40:00 12:43:10 22° 299° (WNW) 12:46:20 145.870
POLYITAN 1 29 May 12:42:10 12:45:57 31° 264° (W) 12:49:45 437.675
ZACube-1 29 May 12:42:19 12:44:47 15° 304° (WNW) 12:47:17 437.345
ESTCUBE 1 29 May 12:43:59 12:48:27 50° 100° (E) 12:52:52 437.505/2401.250
CUBEBUG 1 29 May 12:45:19 12:49:25 37° 97° (E) 12:53:28 437.445
DX 1 29 May 12:45:25 12:49:19 30° 96° (E) 12:53:09 434.975-435.025
AO-7 29 May 12:46:57 12:51:57 18° 28° (NNE) 12:56:57 29.400- 29.500
50 SAT 29 May 12:47:17 12:50:50 40° 99° (E) 12:54:22 437.505
BEESAT 3 29 May 12:49:06 12:53:03 87° 140° (SE) 12:57:03 437.485
NANOSAT C BR1 29 May 12:54:13 12:57:47 26° 266° (W) 13:01:21 145.865
VELOX 1 29 May 12:57:35 13:01:53 46° 99° (E) 13:06:08 145.980
SPROUT 29 May 13:03:16 13:06:49 25° 93° (E) 13:10:21 437.525
CUSAT 1 29 May 13:04:09 13:11:09 72° 287° (WNW) 13:19:14 437.405
DANDE 29 May 13:16:53 13:23:05 84° 101° (E) 13:30:59 436.750
Gurwin Techsat 1B 29 May 13:18:30 13:23:04 30° 59° (ENE) 13:27:40 435.225
TISAT 1 29 May 13:21:14 13:22:54 12° 86° (E) 13:24:34 437.305
ITAMSAT 1 29 May 13:27:01 13:30:25 18° 51° (NE) 13:33:51 435.822/435.867
UKube-1 29 May 13:30:36 13:34:55 65° 103° (ESE) 13:39:13 .
DUCHIFAT 1 29 May 13:33:52 13:35:48 13° 273° (W) 13:37:44 145.980
AISAT 29 May 13:33:56 13:38:23 81° 288° (WNW) 13:42:48 437.250
BUGSAT 1 29 May 13:42:01 13:45:01 19° 269° (W) 13:48:00 437.445
PCSat 29 May 13:42:34 13:46:43 21° 343° (NNW) 13:50:52 145.827
BEESAT 2 29 May 13:56:16 14:00:07 46° 322° (NW) 14:04:00 435.950
AO-85 29 May 14:03:19 14:08:16 71° 43° (NE) 14:12:44 145.980
JAS-2 29 May 14:06:11 14:13:31 50° 264° (W) 14:21:11 435.910
Oscar 19 29 May 14:18:05 14:23:11 54° 260° (W) 14:28:18 437.125/150
ESTCUBE 1 29 May 14:21:14 14:25:02 26° 299° (WNW) 14:28:49 437.505/2401.250
50 SAT 29 May 14:21:25 14:24:24 23° 297° (WNW) 14:27:22 437.505
DX 1 29 May 14:21:32 14:25:35 38° 295° (WNW) 14:29:37 434.975-435.025
CUBEBUG 1 29 May 14:21:46 14:25:40 32° 296° (WNW) 14:29:32 437.445
BEESAT 3 29 May 14:27:57 14:31:15 24° 334° (NNW) 14:34:33 437.485
Cosmos 2491 29 May 14:29:18 14:37:29 40° 63° (ENE) 14:45:35 435.465 / 435.565
VELOX 1 29 May 14:34:25 14:38:10 27° 299° (WNW) 14:41:53 145.980
AO-7 29 May 14:35:03 14:42:43 44° 52° (NE) 14:50:25 29.400- 29.500
SPROUT 29 May 14:38:54 14:42:59 44° 292° (WNW) 14:47:02 437.525
YUBILEINY 29 May 14:41:48 14:45:57 14° 67° (ENE) 14:50:06 435.215
AIST 2 29 May 14:44:58 14:49:02 60° 128° (SE) 14:53:09 435.215
CUSAT 1 29 May 14:49:06 14:54:51 24° 312° (NW) 15:01:02 437.405
TISAT 1 29 May 14:55:01 14:59:14 89° 104° (ESE) 15:03:24 437.305
Gurwin Techsat 1B 29 May 14:57:35 15:02:47 55° 259° (W) 15:08:03 435.225
SWISSCUBE 29 May 15:01:03 15:05:10 27° 94° (E) 15:09:16 437.505
DANDE 29 May 15:01:24 15:07:04 29° 307° (NW) 15:13:47 436.750
ITAMSAT 1 29 May 15:04:00 15:09:11 82° 72° (ENE) 15:14:25 435.822/435.867
UKube-1 29 May 15:07:25 15:10:35 20° 302° (WNW) 15:13:44 .
ITUPSAT 1 29 May 15:08:20 15:12:31 28° 94° (E) 15:16:41 437.325
AISAT 29 May 15:11:47 15:14:12 15° 307° (NW) 15:16:37 437.250
PCSat 29 May 15:28:10 15:32:03 19° 9° (N) 15:35:56 145.827
BEESAT 29 May 15:30:16 15:34:51 43° 99° (E) 15:39:26 436.000
BEESAT 2 29 May 15:36:05 15:38:52 18° 344° (NNW) 15:41:41 435.950
AO-85 29 May 15:44:31 15:48:16 24° 245° (WSW) 15:51:46 145.980
KKS-1 29 May 15:52:57 15:54:33 12° 85° (E) 15:56:08 437.445
JAS-2 29 May 15:57:35 16:00:31 12° 286° (WNW) 16:03:28 435.910
NOAA 15 29 May 16:01:30 16:02:51 11° 43° (NE) 16:04:12 137.62
BEESAT 3 29 May 16:07:53 16:10:12 15° 357° (N) 16:12:32 437.485
Cubesat XI-IV 29 May 16:15:27 16:15:35 10° 41° (NE) 16:15:42 437.490
Cosmos 2504 29 May 16:17:08 16:20:31 14° 68° (ENE) 16:23:59 435.465 / 435.565
HORYU 2 29 May 16:21:51 16:25:53 36° 65° (ENE) 16:29:58 437.375
STARS 29 May 16:22:36 16:24:21 12° 86° (E) 16:26:05 437.465
MOZHAYETS 4 29 May 16:22:41 16:25:59 19° 89° (E) 16:29:16
AIST 2 29 May 16:24:05 16:27:48 31° 329° (NNW) 16:31:33 435.215
Cosmos 2491 29 May 16:26:15 16:34:52 63° 268° (W) 16:43:24 435.465 / 435.565
AO-7 29 May 16:27:03 16:35:16 63° 255° (WSW) 16:43:34 29.400- 29.500
NOAA 18 29 May 16:28:10 16:31:16 16° 47° (NE) 16:34:22 137.9125
TISAT 1 29 May 16:31:56 16:34:18 15° 305° (NW) 16:36:40 437.305
YUBILEINY 29 May 16:32:21 16:40:45 58° 91° (E) 16:49:12 435.215
SWISSCUBE 29 May 16:38:34 16:43:12 49° 293° (WNW) 16:47:50 437.505
RS-15 29 May 16:44:42 16:53:54 30° 103° (ESE) 17:03:27 29.354- 29.394
ITAMSAT 1 29 May 16:45:47 16:49:19 18° 272° (W) 16:52:54 435.822/435.867
ITUPSAT 1 29 May 16:45:57 16:50:34 48° 294° (WNW) 16:55:12 437.325
DANDE 29 May 16:51:20 16:53:08 11° 334° (NNW) 16:54:58 436.750
CUTE-I 29 May 16:56:50 17:00:26 19° 52° (NE) 17:04:03 437.470
BEESAT 29 May 17:08:18 17:12:33 32° 298° (WNW) 17:16:47 436.000
PCSat 29 May 17:11:58 17:17:00 36° 34° (NE) 17:22:01 145.827
BEESAT 2 29 May 17:15:37 17:18:08 16° 8° (N) 17:20:39 435.950
O/OREOS (USA 219) 29 May 17:20:39 17:23:37 17° 36° (NE) 17:26:33 437.305
KKS-1 29 May 17:27:25 17:31:54 80° 106° (ESE) 17:36:19 437.445
BRITE-PL 29 May 17:30:46 17:35:48 33° 62° (ENE) 17:40:46 437.365/2234.400
HO-68 29 May 17:33:06 17:36:40 15° 34° (NNE) 17:40:14 435.675
NOAA 15 29 May 17:36:23 17:41:24 44° 64° (ENE) 17:46:26 137.62
GOMX 1 29 May 17:44:55 17:49:09 24° 58° (ENE) 17:53:15 467.674
BEESAT 3 29 May 17:46:12 17:49:15 21° 21° (NNE) 17:52:18 437.485
Cubesat XI-IV 29 May 17:49:25 17:54:20 40° 63° (ENE) 17:59:18 437.490
CUBESAT XI-V 29 May 17:53:56 17:57:25 20° 89° (E) 18:00:54 437.345
LilacSat-2 29 May 17:55:47 17:59:08 30° 66° (ENE) 18:02:28 437.200
STARS 29 May 17:57:02 18:01:26 84° 105° (ESE) 18:05:49 437.465
HORYU 2 29 May 17:58:31 18:02:30 33° 264° (W) 18:06:31 437.375
MOZHAYETS 4 29 May 17:59:01 18:03:38 68° 289° (WNW) 18:08:15
AIST 2 29 May 18:04:45 18:07:28 16° 353° (N) 18:10:11 435.215
Cosmos 2504 29 May 18:04:53 18:12:03 60° 92° (E) 18:19:43 435.465 / 435.565
NOAA 18 29 May 18:05:37 18:11:00 64° 68° (ENE) 18:16:24 137.9125
SWISSCUBE 29 May 18:18:52 18:19:58 11° 314° (NW) 18:21:05 437.505
DOVE 4 29 May 18:22:32 18:26:33 24° 60° (ENE) 18:30:25 437.250
Cosmos 2491 29 May 18:25:01 18:29:52 16° 291° (WNW) 18:34:42 435.465 / 435.565
AO-7 29 May 18:25:05 18:29:51 16° 278° (W) 18:34:38 29.400- 29.500
ITUPSAT 1 29 May 18:26:29 18:27:21 10° 314° (NW) 18:28:13 437.325
YUBILEINY 29 May 18:29:44 18:37:54 44° 295° (WNW) 18:46:10 435.215
CUTE-I 29 May 18:34:28 18:39:47 83° 74° (ENE) 18:45:09 437.470
CINEMA 3 29 May 18:38:58 18:40:42 12° 53° (NE) 18:42:24 145.822/145.860
RS-15 29 May 18:53:07 19:04:38 82° 129° (SE) 19:16:49 29.354- 29.394
BEESAT 2 29 May 18:53:29 18:57:06 31° 32° (NNE) 19:00:43 435.950
PCSat 29 May 18:55:23 19:00:47 65° 237° (WSW) 19:06:09 145.827
O/OREOS (USA 219) 29 May 18:59:20 19:03:51 72° 58° (ENE) 19:08:19 437.305
KKS-1 29 May 19:04:59 19:07:57 18° 305° (NW) 19:10:54 437.445
BRITE-PL 29 May 19:08:27 19:14:02 55° 261° (W) 19:19:36 437.365/2234.400
NOAA 15 29 May 19:16:23 19:21:17 36° 264° (W) 19:26:13 137.62
